Vertical_Velocity
-2 -2 -2 -2 -2 -2 -2 -2 -4 -3 -2 -2 -2 -1 -2 -2 -1 -1 -2 -1 -1 -3
-3 -2 -2 -2 -2 -2 -2 -2 -3 -2 -2 -3 -3 -2 -2 -2 -2 -3 -1 -1 -2 -3
-1 -2 -0 -1 -2 -2 -2 -2 -2 -3 -3 -3 -3 -3 -2 -3 0 -2 0 -3 -3 -0
-2 -2 0 -1 -2 -2 -2 -2 -2 -2 -3 -3 -3 -2 -2 -1 -1 -3 -3 1 -2 -1
-1 -0 -1 -0 -2 -1 -1 -2 -3 -2 -2 -3 -3 -2 -2 -2 -1 -3 -2 -1 -2 -2
-0 -1 -1 -1 -1 -1 -2 -2 -1 -3 -3 -2 -3 -3 -2 -2 -2 0 -2 -3 -2 -0
-1 -0 0 -0 -1 -1 -1 -1 -2 -3 -2 -2 -2 -3 -4 -2 -2 -0 2 2 1 -1
-0 0 0 0 -0 0 -1 -2 -3 -2 -0 -1 -2 -3 -5 -4 -4 -4 -1 2 0 -0
1 1 1 1 1 -0 -2 -2 -1 0 -1 -1 -3 -2 -2 -3 -3 1 -1 -5 1 -0
0 0 1 0 -2 -2 0 -1 -1 -2 -3 -1 -2 -4 -3 -1 -2 -4 -2 -3 -5 0
1 0 1 -1 -0 -1 -2 -3 -3 -2 -2 -3 -2 -2 -1 -1 -3 -2 0 -2 -1 -3
0 1 -0 0 -1 -2 -2 -0 -1 -3 -4 -5 2 -2 -3 -5 -4 -1 0 -1 3 -2
1 0 1 -2 -2 -2 -3 -1 -3 -3 -0 -0 -3 -1 -3 -5 -10 -6 -4 5 1 2
0 -0 -3 -2 -1 1 -2 -4 -3 -1 0 -6 -4 -1 -1 0 -3 -5 -8 -2 -3 3
Height
3080 3078 3075 3072 3068 3064 3060 3056 3052 3047 3042 3037 3032 3027 3022 3017 3012 3006 3002 2997 2992 2985
3075 3073 3069 3066 3062 3058 3054 3049 3044 3040 3035 3029 3024 3019 3013 3008 3004 2998 2994 2988 2981 2975
3070 3067 3064 3060 3056 3052 3047 3043 3038 3032 3027 3022 3016 3011 3005 3000 2995 2989 2983 2976 2969 2963
3064 3061 3057 3053 3049 3045 3040 3035 3030 3025 3020 3014 3009 3004 2998 2992 2985 2978 2971 2966 2957 2951
3058 3055 3051 3046 3042 3038 3033 3027 3022 3017 3012 3007 3001 2995 2988 2980 2974 2967 2960 2953 2945 2939
3052 3048 3043 3039 3035 3030 3025 3020 3015 3009 3004 2998 2993 2986 2978 2971 2963 2956 2949 2942 2934 2926
3045 3040 3036 3032 3027 3023 3018 3013 3008 3002 2996 2990 2983 2976 2968 2960 2952 2946 2939 2931 2923 2915
3037 3033 3029 3024 3020 3015 3010 3005 2999 2993 2987 2981 2975 2966 2956 2949 2941 2934 2928 2920 2912 2904
3030 3025 3021 3017 3012 3007 3003 2997 2991 2985 2978 2971 2964 2955 2947 2939 2932 2925 2916 2908 2901 2892
3022 3018 3014 3010 3004 2999 2994 2988 2983 2976 2969 2961 2954 2947 2939 2931 2922 2914 2906 2897 2889 2881
3015 3011 3007 3002 2996 2991 2986 2981 2974 2967 2960 2952 2946 2938 2929 2921 2912 2903 2895 2887 2878 2869
3007 3004 2999 2994 2989 2984 2978 2972 2966 2959 2951 2944 2937 2928 2918 2909 2900 2892 2885 2876 2868 2860
3000 2995 2991 2987 2982 2976 2969 2964 2957 2950 2944 2936 2927 2917 2908 2897 2887 2880 2872 2865 2855 2848
2992 2988 2985 2980 2973 2968 2962 2955 2949 2943 2936 2926 2916 2907 2898 2888 2878 2868 2861 2852 2844 2839